Location: Sungai Laei
(2.6000°N, 113.7167°E)
Time: 13:59:02
(UTC+00:00)

CZ-2C R/B - Pass Details

Date: 10 October 2022
Orbit: 703 x 908 km, 98.1° (Epoch: 08 December)

Event Time Altitude Azimuth Distance (km) Brightness Sun altitude
Rises 20:48:58 0° 4° (N) 3,304 6.3 -20.9°
Reaches altitude 10° 20:51:24 10° 359° (N) 2,343 5.4 -20.3°
Maximum altitude 20:56:25 54° 283° (WNW) 914 3.0 -19.1°
Drops below altitude 10° 21:01:12 10° 205° (SSW) 2,234 5.2 -17.9°
Sets 21:03:28 0° 201° (SSW) 3,136 6.0 -17.3°
